TimeEDT,TemperatureF,Dew PointF,Humidity,Sea Level PressureIn,VisibilityMPH,Wind Direction,Wind SpeedMPH,Gust SpeedMPH,PrecipitationIn,Events,Conditions,WindDirDegrees,DateUTC
12:56 AM,73.9,72.0,93,29.96,10.0,Calm,Calm,-,N/A,,Mostly Cloudy,0,2013-06-15 04:56:00
1:56 AM,73.9,72.0,93,29.97,10.0,ENE,3.5,-,N/A,,Scattered Clouds,60,2013-06-15 05:56:00
2:56 AM,73.9,71.1,91,29.97,10.0,ENE,3.5,-,N/A,,Scattered Clouds,70,2013-06-15 06:56:00
3:56 AM,75.0,69.1,82,29.98,10.0,East,4.6,-,N/A,,Mostly Cloudy,90,2013-06-15 07:56:00
4:56 AM,73.9,66.9,79,29.99,10.0,East,5.8,-,N/A,,Scattered Clouds,80,2013-06-15 08:56:00
5:56 AM,73.9,66.0,76,30.00,10.0,East,9.2,-,N/A,,Partly Cloudy,90,2013-06-15 09:56:00
6:56 AM,75.0,66.9,76,30.01,10.0,East,8.1,-,0.01,,Scattered Clouds,90,2013-06-15 10:56:00
7:56 AM,78.1,68.0,71,30.03,10.0,East,9.2,-,0.01,,Scattered Clouds,90,2013-06-15 11:56:00
8:56 AM,81.0,66.9,62,30.06,10.0,East,10.4,-,N/A,,Scattered Clouds,90,2013-06-15 12:56:00
9:56 AM,82.0,66.9,60,30.08,10.0,East,12.7,-,N/A,,Scattered Clouds,100,2013-06-15 13:56:00
10:56 AM,82.9,66.0,56,30.09,10.0,ESE,13.8,-,N/A,,Mostly Cloudy,110,2013-06-15 14:56:00
11:56 AM,82.9,68.0,60,30.09,10.0,ESE,13.8,-,N/A,,Mostly Cloudy,120,2013-06-15 15:56:00
12:56 PM,84.0,66.9,56,30.09,10.0,SE,11.5,-,N/A,,Mostly Cloudy,130,2013-06-15 16:56:00
1:56 PM,84.0,66.0,55,30.08,10.0,ESE,12.7,-,N/A,,Mostly Cloudy,120,2013-06-15 17:56:00
2:56 PM,82.9,66.9,58,30.07,10.0,ESE,8.1,-,N/A,,Mostly Cloudy,110,2013-06-15 18:56:00
3:56 PM,84.9,66.9,55,30.07,10.0,East,13.8,-,N/A,,Mostly Cloudy,100,2013-06-15 19:56:00
4:56 PM,84.9,66.0,53,30.07,10.0,ESE,12.7,-,N/A,,Mostly Cloudy,120,2013-06-15 20:56:00
5:56 PM,84.0,64.9,53,30.06,10.0,ESE,12.7,-,N/A,,Scattered Clouds,120,2013-06-15 21:56:00
6:56 PM,82.0,66.0,58,30.07,10.0,ESE,11.5,-,N/A,,Scattered Clouds,120,2013-06-15 22:56:00
7:56 PM,79.0,66.9,66,30.08,10.0,East,10.4,-,N/A,,Scattered Clouds,100,2013-06-15 23:56:00
8:56 PM,78.1,66.9,68,30.09,10.0,ESE,8.1,-,N/A,,Scattered Clouds,110,2013-06-16 00:56:00
9:56 PM,75.0,68.0,79,30.09,10.0,East,6.9,-,0.01,,Scattered Clouds,90,2013-06-16 01:56:00
10:56 PM,75.0,66.9,76,30.10,10.0,ESE,4.6,-,N/A,,Partly Cloudy,110,2013-06-16 02:56:00
11:56 PM,75.9,66.9,74,30.11,10.0,ESE,5.8,-,N/A,,Scattered Clouds,110,2013-06-16 03:56:00